Location: Unspecified
(46.4524°N, 0.0000°E)
Time: 13:54:40
(UTC+00:00)

ESTCUBE 1 - Visible Passes

Search period start: 04 April 2026 00:00
Search period end: 14 April 2026 00:00
Orbit: 621 x 630 km, 97.7° (Epoch: 29 March)

Date Brightness Start Highest point End Pass type
(mag) Time Alt. Az. Time Alt. Az. Time Alt. Az.
4 Apr ? 20:14:02 34° SE 20:15:34 50° ENE 20:19:50 10° N visible
4 Apr ? 21:51:19 17° WSW 21:52:05 18° W 21:55:06 10° NW visible
5 Apr ? 20:33:08 43° SSE 20:34:30 78° ENE 20:38:55 10° N visible
5 Apr ? 22:10:24 11° W 22:11:18 11° W 22:12:47 10° WNW visible
6 Apr ? 19:15:17 10° E 19:17:47 15° ENE 19:20:18 10° NNE visible
6 Apr ? 20:52:13 44° SSW 20:53:29 67° WSW 20:57:53 10° NNW visible
7 Apr ? 19:34:02 14° ESE 19:36:33 22° ENE 19:39:56 10° NNE visible
7 Apr ? 21:11:18 34° SW 21:12:32 42° W 21:16:44 10° NNW visible
8 Apr ? 19:53:07 20° ESE 19:55:22 32° ENE 19:59:17 10° N visible
8 Apr ? 21:30:23 24° WSW 21:31:37 28° W 21:35:24 10° NW visible
9 Apr ? 20:12:12 27° SE 20:14:15 49° ENE 20:18:30 10° N visible
9 Apr ? 21:49:28 16° WSW 21:50:45 18° W 21:53:49 10° NW visible
10 Apr ? 20:31:16 34° SSE 20:33:10 77° ENE 20:37:34 10° N visible
10 Apr ? 22:08:33 10° WSW 22:09:57 12° W 22:11:33 10° WNW visible
11 Apr ? 19:13:59 10° E 19:16:26 15° ENE 19:18:53 10° NNE visible
11 Apr ? 20:50:21 35° S 20:52:08 69° WSW 20:56:32 10° NNW visible
12 Apr ? 19:32:09 11° ESE 19:35:11 22° ENE 19:38:31 10° NNE visible
12 Apr ? 21:09:26 29° SSW 21:11:09 43° W 21:15:22 10° NNW visible
13 Apr ? 19:51:13 16° ESE 19:53:58 31° ENE 19:57:52 10° N visible
13 Apr ? 21:28:29 22° SW 21:30:12 28° W 21:34:01 10° NW visible
